Location: ?????? ????????
(53.3693°N, 59.0004°E)
Time: 19:05:34
(UTC+00:00)

Daily predictions for brighter satellites

Satellite Brightness Start Highest point End
(mag) Time Altitude Azimuth Time Altitude Azimuth Time Altitude Azimuth
GEOS 3 Rocket 3.6 14:28:41 10° ESE 14:33:46 72° NE 14:38:54 10° NW
COSMO-SKYMED 1 2.7 14:29:37 10° NNE 14:33:59 88° WNW 14:38:20 10° SSW
Okean 1-7 Rocket 4.3 14:31:57 10° N 14:36:04 35° ENE 14:40:11 10° SE
RESURS DK-1 4.0 14:33:06 10° NNW 14:36:18 21° NE 14:39:29 10° E
ARGOS 4.1 14:36:27 10° ESE 14:41:00 29° ENE 14:45:34 10° N
MONITOR-E 4.2 14:41:20 10° SSE 14:44:02 46° ENE 14:46:46 10° N
Timation 2 Rocket 4.1 14:37:55 10° SSW 14:44:26 86° ESE 14:50:43 10° NE
ERBS 2.3 14:41:31 10° WNW 14:44:56 87° NNE 14:48:20 10° ESE
ISS -1.8 14:44:10 10° S 14:46:08 15° SE 14:48:07 10° ESE
Cosmos 2227 Rocket 3.1 14:43:11 10° SSE 14:47:43 25° ESE 14:52:15 10° NE
Cosmos 2151 Rocket 4.2 14:47:32 10° SSW 14:51:53 61° WNW 14:56:16 10° N
Cosmos 2219 3.6 14:47:40 10° S 14:53:04 43° ESE 14:58:27 10° NE
Meteor 2-9 Rocket 4.4 14:48:27 10° SSW 14:54:10 80° WNW 14:59:46 10° NNE
SPOT 3 Rocket 3.9 14:50:08 10° SE 14:55:00 44° ENE 14:59:54 10° N
Cosmos 1371 Rocket 4.5 14:51:26 10° S 14:56:22 39° ESE 15:01:20 10° NE
Meteor 1-4 Rocket 2.7 14:53:14 10° N 14:56:43 49° ENE 15:00:07 10° SSE
CZ-2C R/B 4.3 14:52:54 10° ESE 14:57:22 27° ENE 15:02:02 10° N
Cosmos 2297 Rocket 2.9 14:52:55 10° SSE 14:57:48 31° ESE 15:02:41 10° NE
Cosmos 1455 Rocket 4.1 14:54:24 10° SE 14:58:04 26° E 15:01:46 10° NNE
CZ-4 R/B 3.7 14:59:57 10° SSW 15:03:20 27° W 15:06:49 10° NW
Cosmos 676 Rocket 4.1 14:58:14 10° NNW 15:03:31 64° ENE 15:08:41 10° SE
CZ-2D R/B 3.9 15:00:04 10° S 15:03:49 59° W 15:07:36 10° NNW
SJ-6B 3.2 15:00:45 10° SE 15:04:40 46° ENE 15:08:33 10° N
USA 186 2.2 15:02:38 10° SE 15:05:56 47° ENE 15:09:14 10° N
Cosmos 2341 Rocket 4.0 15:01:40 10° N 15:07:57 75° ENE 15:14:10 10° SSE
Cosmos 1023 Rocket 4.4 15:03:26 10° NNW 15:08:39 82° ENE 15:13:45 10° SSE
MOS 1 4.3 15:04:44 10° SSE 15:10:27 85° ENE 15:16:11 10° NNW
Cosmos 2181 Rocket 4.3 15:05:24 10° SSE 15:11:18 45° E 15:17:19 10° NNE
Cosmos 1766 4.5 15:08:33 10° SE 15:11:36 22° E 15:14:38 10° NE
In-Cosmos 22 4.1 15:06:34 10° NNW 15:11:58 78° ENE 15:17:27 10° SSE
Cosmos 1626 Rocket 4.4 15:09:06 10° N 15:12:56 30° ENE 15:15:46 15° ESE
ADEOS Rocket 4.0 15:10:30 10° NNE 15:17:15 37° E 15:24:16 10° SSE
Cosmos 1190 Rocket 4.4 15:14:14 10° NNW 15:19:31 68° WSW 15:24:44 10° SSE
Cosmos 2366 rocket 4.1 15:14:49 10° N 15:21:07 57° ENE 15:27:21 10° SSE
Cosmos 2218 Rocket 4.1 15:15:25 10° N 15:21:46 61° ENE 15:28:00 10° SSE
Okean 1 Rocket 3.5 15:18:44 10° SSW 15:23:03 65° WNW 15:27:26 10° N
H-2A R/B 2.1 15:19:18 10° SE 15:24:08 55° ENE 15:29:08 10° N
Lacrosse 5 rocket 2.1 15:21:30 10° SSW 15:24:36 26° SE 15:25:50 22° ESE
Cosmos 2333 Rocket 4.4 15:20:05 10° NW 15:24:41 26° WSW 15:29:16 10° SSW
Cosmos 2237 Rocket 2.9 15:19:27 10° NW 15:25:02 55° WSW 15:30:34 10° S
EO 1 Delta rocket 4.3 15:19:56 10° SSE 15:26:07 89° WSW 15:31:10 10° N
Cosmos 1461 3.8 15:22:42 10° WSW 15:26:33 46° NW 15:30:24 10° NE
Meteor 1-15 Rocket 4.3 15:20:47 10° S 15:26:33 69° E 15:32:26 10° NNE
Cosmos 405 Rocket 2.6 15:24:21 10° S 15:27:58 57° E 15:31:40 10° NNE
SL-8 Rocket 3.9 15:23:21 10° N 15:29:36 77° ENE 15:35:45 10° SSE
Cosmos 1939 Rocket 4.4 15:26:26 10° SSW 15:30:02 37° W 15:33:40 10° NNW
Meteor 1-24 Rocket 3.9 15:27:31 10° N 15:33:16 60° ENE 15:38:49 12° SSE
Cosmos 1437 Rocket 2.6 15:30:55 10° N 15:34:43 65° ENE 15:37:29 17° SSE
Cosmos 1602 Rocket 4.1 15:30:53 10° N 15:34:59 38° ENE 15:37:04 23° ESE
USA 234 3.4 15:28:27 10° ENE 15:35:00 75° NNW 15:41:34 10° W
Resurs 1-3 3.8 15:32:45 19° SE 15:35:43 50° ENE 15:39:59 10° N
Cosmos 1674 2.6 15:32:33 10° N 15:36:16 58° ENE 15:38:37 20° SSE
Cosmos 1850 Rocket 4.2 15:31:16 10° NNW 15:36:21 51° ENE 15:39:30 22° SE
Ariane Rocket 4.4 15:34:39 10° SSW 15:39:24 40° W 15:44:13 10° NNW
BREEZE-M DEB (TANK) 3.6 15:35:39 10° W 15:39:49 72° S 15:46:15 19° ESE
Cosmos 1959 Rocket 4.4 15:35:43 10° N 15:41:52 78° ENE 15:48:04 10° SSE
CZ-2C R/B 3.5 15:42:18 10° NNE 15:46:47 76° ESE 15:51:13 10° S
CZ-4C R/B 3.8 15:42:28 10° WNW 15:48:07 35° N 15:54:22 11° ENE
Resurs 01 Rocket 1.8 15:47:40 26° SE 15:49:54 53° ENE 15:54:15 10° N
Cosmos 389 Rocket 4.5 15:48:46 10° NNW 15:51:45 28° W 15:54:44 10° SSW
Cosmos 1892 Rocket 4.5 15:48:24 10° NNW 15:52:44 50° W 15:56:59 10° S
Cosmos 1603 4.2 15:47:59 10° NNW 15:53:27 45° NE 15:56:06 27° ESE
Cosmos 2056 Rocket 3.5 15:49:22 10° SSW 15:54:49 87° ESE 16:00:15 10° NNE
ASTEX 1 3.8 15:49:58 10° N 15:54:49 63° W 15:59:39 10° SSW
Cosmos 1420 Rocket 4.2 15:52:50 10° S 15:57:55 48° ESE 16:03:03 10° NE
SL-16 R/B 2.4 15:52:22 10° NW 15:58:03 73° WSW 16:02:15 19° SSE
CZ-2C R/B 4.0 15:54:19 10° NE 15:58:04 22° E 15:58:04 22° E
Cosmos 1805 3.2 15:56:35 18° S 15:59:18 61° E 16:03:09 10° NNE
SAR-Lupe-2 4.2 15:56:43 10° N 16:00:15 57° WNW 16:03:45 10° SSW
ERS-1 Rocket 4.2 16:00:52 23° ENE 16:01:54 25° ENE 16:05:57 10° N
Cosmos 1624 Rocket 4.1 16:00:55 10° SSW 16:06:06 77° WNW 16:11:21 10° NNE
Meteor 2-5 Rocket 4.2 16:01:28 10° NNW 16:07:14 64° W 16:13:04 10° S
Cosmos 1741 Rocket 4.0 16:02:28 10° NNW 16:07:51 81° ENE 16:10:27 31° SSE
SPOT 5 4.3 16:07:44 22° ENE 16:08:30 23° NE 16:12:26 10° N
MetOp-B 4.4 16:08:10 34° ESE 16:10:08 51° ENE 16:15:20 10° N
KORONAS-FOTON 4.0 16:06:38 10° NNW 16:10:25 69° W 16:12:17 28° S
SL-8 R/B 4.3 16:08:32 10° W 16:13:04 43° S 16:14:11 36° SSE
SL-08 RB Rocket 3.7 16:10:43 25° SSE 16:13:26 84° WSW 16:18:08 10° NNW
RESURS DK-1 2.3 16:10:43 10° NW 16:14:54 84° SW 16:15:59 48° SSE
Spot 2 Rocket 3.6 16:14:14 39° SE 16:15:53 58° ENE 16:20:52 10° N
Cosmos 2082 3.6 16:10:46 10° SSW 16:16:26 67° ESE 16:22:08 10° NE
Meteor 1-22 Rocket 4.3 16:11:35 10° S 16:17:39 75° E 16:23:45 10° NNE
Cosmos 2084 Rocket 3.4 16:14:50 10° SW 16:19:19 86° SE 16:22:30 19° NE
Cosmos 1626 2.4 16:16:24 10° N 16:19:47 51° ENE 16:19:47 51° ENE
ARGOS 3.6 16:16:14 13° S 16:20:57 61° WSW 16:26:20 10° NNW
ERBS 4.2 16:18:19 10° W 16:21:00 22° SW 16:21:28 21° SSW
ISS -2.4 16:19:07 10° SW 16:21:05 29° SW 16:21:05 29° SW
SPOT 1/Viking Rocket 4.2 16:23:07 35° E 16:23:51 37° ENE 16:28:34 10° N
Terra 3.3 16:24:33 21° ENE 16:24:35 21° ENE 16:28:10 10° N
Cosmos 1934 Rocket 4.3 16:20:27 10° N 16:26:21 47° ENE 16:27:52 39° ESE
Cosmos 1733 3.1 16:29:17 72° ENE 16:29:17 72° ENE 16:32:52 10° NNE
Cosmos 2227 Rocket 2.4 16:25:37 10° SW 16:31:16 72° NW 16:36:59 10° NNE
DMSP B5D2-2 4.1 16:28:13 10° NNE 16:33:27 55° E 16:34:16 50° SE
Cosmos 1544 Rocket 4.3 16:31:07 10° SSW 16:35:28 53° WNW 16:39:53 10° N
MetOp-A 4.4 16:32:32 27° S 16:35:32 67° WSW 16:40:54 10° NNW
Cosmos 1455 Rocket 4.2 16:31:26 10° SW 16:35:41 44° WNW 16:40:00 10° N
CZ-2C R/B 3.4 16:33:46 27° S 16:36:47 68° WSW 16:42:26 10° NNW
IGS 5A 4.5 16:37:29 33° NE 16:37:29 33° NE 16:40:39 10° N
Cosmos 2219 4.3 16:31:41 10° WSW 16:37:14 47° NW 16:42:47 10° NNE
SL-14 R/B 3.2 16:33:52 10° NNW 16:37:52 80° W 16:38:05 76° SW
Cosmos 2297 Rocket 2.7 16:35:56 10° SW 16:41:33 61° NW 16:47:11 10° NNE
Cosmos 1953 Rocket 4.0 16:39:17 10° N 16:43:15 49° NE 16:43:15 49° NE
Cosmos 1766 4.4 16:43:50 11° SW 16:47:27 42° WNW 16:51:12 10° N
Cosmos 1452 Rocket 3.4 16:43:42 10° SSW 16:48:58 86° WNW 16:54:16 10° NNE
Cosmos 2263 Rocket 4.2 16:55:09 14° NE 16:55:09 14° NE 16:56:00 10° NE
Cosmos 1943 3.1 16:52:21 10° NNW 16:58:06 83° ENE 16:58:53 67° SE
Cosmos 1825 Rocket 3.6 16:53:53 10° NNW 16:57:55 76° NNW 16:57:55 76° NNW
USA 245 4.2 16:59:14 58° SSE 17:00:29 87° ENE 17:05:53 10° NNW
ADEOS Rocket 3.8 16:55:51 10° NNE 17:03:06 67° WNW 17:10:45 10° SSW
Nadezhda 3 Rocket 3.9 17:00:51 39° S 17:03:19 89° ESE 17:09:37 10° N
Lacrosse 5 rocket 2.8 16:59:41 10° WSW 17:01:31 28° WSW 17:01:31 28° WSW
H-2A R/B 3.8 16:59:46 10° SSW 17:03:55 26° W 17:08:11 10° NW
Cosmos 2285 Rocket 4.3 16:58:31 10° NNW 17:04:48 50° NE 17:05:41 47° E
Cosmos 1758 Rocket 3.9 17:05:01 10° NNW 17:09:02 63° WNW 17:09:02 63° WNW
Cosmos 1605 Rocket 4.0 17:05:19 10° N 17:11:42 65° ENE 17:12:14 62° ESE
Cosmos 1821 Rocket 4.3 17:08:11 10° NNW 17:14:15 62° W 17:16:20 40° SSW
Meteor 1-21 Rocket 4.4 17:09:33 10° NNW 17:15:28 72° W 17:16:38 56° SSW
USA 234 3.5 17:15:15 38° ENE 17:17:49 67° N 17:24:20 10° WNW
BREEZE M DEB (TANK) 4.3 17:19:08 10° W 17:20:22 24° WSW 17:20:22 24° WSW
Cosmos 1470 4.3 17:25:51 34° NNW 17:25:51 34° NNW 17:28:20 10° N
Resurs 01 Rocket 3.6 17:25:14 20° WSW 17:26:42 23° W 17:30:16 10° NW
Landsat 7 4.2 17:30:51 62° NW 17:30:51 62° NW 17:34:59 10° NNW
Meteor 1-11 4.4 17:30:53 10° N 17:35:53 65° NNE 17:35:53 65° NNE
Cosmos 1603 4.4 17:32:15 10° NW 17:37:37 44° WSW 17:37:59 43° WSW
CZ-4C R/B 3.1 17:31:26 10° NW 17:37:58 56° NNE 17:39:31 48° ENE
CZ-2C R/B 2.8 17:33:53 10° NNE 17:39:29 77° WNW 17:39:35 77° W
ERS-1 Rocket 3.4 17:40:52 60° WNW 17:40:52 60° WNW 17:45:21 10° NNW
SPOT 5 3.4 17:46:58 57° NW 17:46:58 57° NW 17:51:11 10° NNW
Cosmos 2173 Rocket 4.5 17:44:21 10° N 17:49:57 50° NE 17:49:57 50° NE
Cosmos 1953 4.4 17:54:36 25° NNW 17:54:36 25° NNW 17:56:33 10° N
Cosmos 1459 Rocket 4.4 17:53:12 10° N 17:58:11 51° NE 17:58:11 51° NE
Terra 2.9 18:03:26 42° NNW 18:03:26 42° NNW 18:06:40 10° NNW
Cosmos 2082 Rocket 4.0 18:07:26 10° NNW 18:11:56 23° NNE 18:12:45 22° NE
Cosmos 2227 Rocket 4.4 18:11:53 10° W 18:16:20 23° NNW 18:20:50 10° NNE
Cosmos 1802 Rocket 4.4 18:11:43 10° N 18:16:59 57° NNE 18:16:59 57° NNE
Cosmos 2061 Rocket 4.4 18:28:08 10° N 18:33:20 59° NNE 18:33:20 59° NNE
Cosmos 2263 Rocket 3.3 18:36:49 40° NNE 18:36:49 40° NNE 18:40:28 10° NNE
Cosmos 839 Rocket 4.4 18:33:03 10° NW 18:38:03 59° NNW 18:38:03 59° NNW
COSMOS 2406 4.1 18:37:58 10° NNW 18:42:11 45° N 18:42:11 45° N
Cosmos 1727 Rocket 4.5 18:46:04 57° NNW 18:46:04 57° NNW 18:51:15 10° N
Cosmos 1833 Rocket 4.0 18:40:41 10° NNW 18:44:52 34° NNE 18:44:52 34° NNE
USA 234 3.8 19:02:35 52° WNW 19:02:35 52° WNW 19:07:22 10° WNW
Mayak 1.6 19:06:22 10° N 19:07:02 14° N 19:07:02 14° N
SJ 16-02 4.1 19:21:13 10° N 19:22:37 16° NNE 19:22:37 16° NNE
CZ-4C R/B 3.5 19:19:57 10° NW 19:24:40 45° WNW 19:24:40 45° WNW
Cosmos 1844 Rocket 4.2 19:46:33 32° NNE 19:46:33 32° NNE 19:49:28 10° NNE
Cosmos 2082 Rocket 3.6 19:51:19 10° NNW 19:54:33 34° NNW 19:54:33 34° NNW
Cosmos 2263 Rocket 4.2 20:18:29 20° NW 20:19:49 22° NNW 20:24:10 10° NNE
ATLAS CENTAUR R/B 4.0 20:25:16 21° N 20:25:16 21° N 20:27:59 10° NE
CZ-2D R/B 4.2 20:38:35 10° NE 20:41:10 18° ENE 20:41:10 18° ENE
Cosmos 2278 Rocket 3.5 20:44:43 37° NE 20:44:43 37° NE 20:48:05 10° NNE
ATLAS 5 CENTAUR R/B 3.8 21:00:11 26° NE 21:00:11 26° NE 21:02:29 10° NE
SJ 16-02 4.2 20:59:15 10° NNW 20:59:34 12° NNW 20:59:34 12° NNW
SL-16 R/B 2.9 21:12:19 61° NNE 21:12:19 61° NNE 21:17:42 10° NNW
ATLAS 3B R/B 4.3 21:15:33 21° ESE 21:15:33 21° ESE 21:19:51 10° ENE
Cosmos 1844 Rocket 4.4 21:28:12 24° NW 21:28:34 24° NNW 21:33:09 10° NNE
H-2A R/B 4.4 21:35:17 19° N 21:35:17 19° N 21:36:34 10° N
Resurs 1-4 Rocket 3.1 21:29:00 10° NNE 21:33:03 41° ENE 21:33:03 41° ENE
USA 267 3.3 21:44:03 10° ENE 21:50:35 73° NNW 21:51:16 67° NW
CENTAUR R/B 3.6 21:52:09 32° ESE 21:52:27 32° ESE 21:58:30 10° NE
Cosmos 2297 4.0 21:56:12 64° NNE 21:56:12 64° NNE 22:01:02 10° NNE
Lacrosse 5 3.5 21:58:17 25° E 21:58:17 25° E 22:00:25 10° ESE
Cosmos 2369 Rocket 3.1 21:59:47 39° ESE 21:59:47 39° ESE 22:04:56 10° NE
Cosmos 841 Rocket 4.0 22:01:43 56° NNE 22:01:43 56° NNE 22:05:51 10° NNE
Cosmos 2228 Rocket 4.4 22:04:10 39° NE 22:04:10 39° NE 22:07:09 10° NNE
ATLAS CENTAUR R/B 3.9 22:01:29 13° NW 22:04:35 23° N 22:08:13 10° ENE
Cosmos 2344 3.8 22:04:48 50° SSE 22:06:01 55° ESE 22:14:09 10° NE
Cosmos 1833 4.3 22:05:57 10° NNW 22:11:36 72° NE 22:11:46 71° ENE
Meteor 1-14 Rocket 4.4 22:07:30 10° N 22:13:02 67° ENE 22:13:21 65° E
Cosmos 2279 Rocket 4.1 22:09:08 10° NNW 22:14:34 62° NW 22:14:34 62° NW
SL-08 R/B 4.2 22:18:34 42° NNW 22:18:34 42° NNW 22:21:42 10° NNW
Cosmos 2180 Rocket 4.4 22:11:23 10° NNW 22:17:40 79° W 22:17:40 79° W
CZ-2D R/B 2.2 22:17:46 10° NNE 22:22:28 69° N 22:22:28 69° N
USA 238 DEB 3.5 22:24:21 73° SW 22:25:07 90° NW 22:32:11 10° NE
USA 238 3.5 22:24:27 73° SW 22:25:13 90° SE 22:32:17 10° NE
Cosmos 2278 Rocket 3.5 22:26:34 28° NW 22:27:08 28° NW 22:32:01 10° NNE
IRS-1C 4.3 22:24:20 10° NNE 22:29:40 64° ESE 22:30:06 62° SE
Meteor 1-20 Rocket 4.3 22:25:33 10° NNW 22:30:09 60° NW 22:30:09 60° NW
Cosmos 1943 Rocket 2.2 22:31:03 68° SE 22:31:14 69° ESE 22:36:47 10° NE
Cosmos 540 Rocket 3.6 22:32:15 65° NNW 22:32:15 65° NNW 22:36:55 10° NNE
NPP 3.7 22:27:33 10° NNE 22:32:40 69° NW 22:32:40 69° NW
ATLAS 5 CENTAUR R/B 3.2 22:41:43 28° NW 22:42:48 31° NNW 22:47:36 10° NE
CRYOSAT 2 4.4 22:44:49 69° NNW 22:44:49 69° NNW 22:49:10 10° N
IRS-1D 3.4 22:39:47 10° NNE 22:45:11 82° WNW 22:45:26 79° WSW
IRIDIUM 104 4.2 22:47:11 82° WSW 22:47:16 82° W 22:52:32 10° N
Nadezhda 4 Rocket 3.9 22:51:31 51° S 22:53:11 87° E 22:59:21 10° NNE
ADEOS II 2.2 22:48:12 10° NNE 22:53:29 73° ESE 22:54:39 54° SSE
SL-16 R/B 3.8 22:57:25 25° WNW 22:57:25 25° WNW 23:00:57 10° NNW
Gbstr 26 Del rocket 4.4 22:52:33 41° W 22:55:38 68° SSW 23:03:30 10° ESE
IRIDIUM 114 4.2 22:56:19 70° W 22:56:27 70° W 23:01:42 10° N
Unknown 4.5 22:58:19 42° ESE 22:58:19 42° ESE 23:01:33 10° E
CZ-2D R/B 3.9 22:54:33 10° NNE 22:58:30 52° E 22:58:45 51° ESE
Unknown 4.4 22:59:54 44° ESE 22:59:54 44° ESE 23:03:12 10° E
deb Chang Zheng 4 3.5 22:55:16 10° NNE 22:59:29 79° NNW 22:59:29 79° NNW
Unknown 4.3 23:01:29 45° ESE 23:01:29 45° ESE 23:04:50 10° E
Unknown 4.3 23:03:06 46° SE 23:03:06 46° SE 23:06:31 10° E
ATLAS 3B R/B 2.6 23:02:48 47° SSW 23:04:51 77° SE 23:11:31 10° NE
Meteor 1-11 Rocket 4.1 22:59:40 10° N 23:05:15 61° ENE 23:10:43 10° SSE
IRIDIUM 103 4.3 23:05:28 60° W 23:05:39 60° W 23:10:51 10° N
Unknown 4.2 23:06:17 49° SE 23:06:17 49° SE 23:09:50 10° E
IRS-P3 4.1 23:00:41 10° N 23:05:58 63° WNW 23:06:37 58° WSW
CZ-4B R/B 3.5 23:09:04 20° NNW 23:09:04 20° NNW 23:10:16 10° NNW
NOSS 3-2 (A) 3.6 23:05:21 49° W 23:07:03 70° NW 23:14:01 10° NE
Starlink (trailer) 4.1 23:07:54 51° SE 23:07:54 51° SE 23:11:33 10° E
Unknown 4.0 23:09:30 52° SE 23:09:30 52° SE 23:13:12 10° E
ARIANE 5 R/B 2.4 23:04:16 10° NNE 23:09:25 86° WNW 23:10:30 57° SSW
Unknown 4.0 23:11:04 54° SE 23:11:04 54° SE 23:14:49 10° E
Aureole 2 Rocket 4.4 23:12:53 18° E 23:12:53 18° E 23:14:34 10° ENE
Cosmos 44 3.5 23:11:47 51° S 23:12:44 63° SE 23:17:25 10° NE
NOSS 3-2 (C) 3.4 23:11:04 49° WSW 23:12:55 83° NW 23:19:54 10° NE
Falcon 9 debris 3.9 23:14:05 49° E 23:14:05 49° E 23:16:43 10° E
Resurs 1-4 Rocket 2.9 23:09:05 10° N 23:13:50 35° WNW 23:14:07 35° WNW
Cosmos 836 Rocket 4.4 23:13:48 58° SW 23:14:44 75° WNW 23:19:58 10° NNE
Unknown 3.7 23:16:27 56° E 23:16:27 56° E 23:19:18 10° E
Cosmos 1553 Rocket 4.5 23:09:59 10° N 23:16:12 61° ENE 23:22:18 10° SSE
Cosmos 1340 3.6 23:13:04 10° N 23:16:46 48° ENE 23:20:26 10° SSE
Unknown 3.8 23:17:30 59° SSE 23:17:30 59° SSE 23:21:32 10° E
Cosmos 2263 4.1 23:16:41 49° SW 23:18:18 87° WNW 23:23:58 10° NNE
Unknown 3.7 23:19:07 59° SSE 23:19:07 59° SSE 23:23:12 10° E
Unknown 3.7 23:19:22 60° SSE 23:19:23 60° SSE 23:23:28 10° E
Cosmos 1656 Rocket 3.9 23:18:14 34° S 23:20:40 67° ESE 23:26:17 10° NE
Unknown 3.7 23:22:16 61° S 23:22:23 61° SSE 23:26:30 10° E
Unknown 3.6 23:23:59 62° S 23:24:10 63° SSE 23:28:17 10° E
Unknown 3.6 23:24:40 61° S 23:24:53 62° SSE 23:29:01 10° E
Meteor 1-5 Rocket 4.1 23:21:48 10° NNW 23:27:18 86° WSW 23:32:56 10° S
Unknown 3.6 23:27:08 62° S 23:27:28 65° SSE 23:31:34 10° E
Unknown 3.6 23:28:40 60° SSW 23:29:02 64° SSE 23:33:10 10° E
Unknown 3.6 23:29:04 60° SSW 23:29:28 65° SSE 23:33:35 10° E
Cosmos 1862 Rocket 4.0 23:26:59 25° S 23:29:28 63° E 23:33:56 10° NNE
PSLV R/B 4.4 23:25:30 10° SSE 23:29:34 62° ENE 23:33:38 10° N
Cosmos 2026 Rocket 4.1 23:26:31 17° S 23:31:34 80° E 23:37:59 10° NNE
Meteor 2-9 4.5 23:26:16 10° NNW 23:31:41 71° W 23:36:36 12° S
Unknown 3.6 23:31:45 58° SSW 23:32:15 65° SSE 23:36:22 10° E
Cosmos 1315 Rocket 4.0 23:29:20 16° SSE 23:32:19 44° E 23:36:16 10° NNE
Cosmos 1782 3.3 23:33:42 42° WNW 23:33:42 42° WNW 23:37:11 10° N
USA 267 3.5 23:26:53 10° E 23:33:23 68° N 23:38:35 17° WNW
Unknown 3.5 23:33:47 62° SW 23:34:17 72° SSE 23:38:20 10° E
Cosmos 2227 Rocket 3.4 23:29:19 10° NNW 23:34:47 44° NE 23:40:12 10° ESE
Unknown 3.6 23:35:00 57° SW 23:35:38 68° SSE 23:39:46 10° E
Cosmos 220 Rocket 4.1 23:35:55 51° W 23:36:31 56° WNW 23:40:44 10° NNE
SL-24 DEB 4.1 23:33:59 24° S 23:36:50 80° W 23:41:37 10° N
Unknown 3.6 23:36:39 56° SW 23:37:20 68° SSE 23:41:28 10° E
Lacrosse 5 2.1 23:37:34 43° WSW 23:38:12 45° SW 23:43:01 10° SSE
Unknown 3.6 23:38:11 54° SW 23:38:56 69° SSE 23:43:04 10° E
Cosmos 2242 Rocket 4.2 23:35:44 13° S 23:39:37 55° E 23:44:01 10° NNE
Unknown 3.6 23:39:48 53° SW 23:40:38 70° SSE 23:44:45 10° E
Iridium 4 Rocket 2.8 23:38:59 34° S 23:40:48 81° W 23:45:00 10° N
Cosmos 2219 3.5 23:35:28 10° NNW 23:41:12 69° NE 23:46:50 10° SE
CENTAUR R/B 2.6 23:39:20 33° WSW 23:42:29 79° NW 23:49:57 10° NE
Cosmos 2369 Rocket 2.6 23:41:35 34° WSW 23:43:39 50° NW 23:49:12 10° NNE
Unknown 3.6 23:43:02 50° SW 23:43:59 71° SSE 23:48:07 10° E
ATLAS CENTAUR R/B 2.6 23:40:03 10° NW 23:44:36 47° NE 23:48:49 10° ESE
Cosmos 2297 Rocket 3.0 23:39:28 10° NNW 23:45:01 52° NE 23:50:32 10° SE
Cosmos 1400 Rocket 2.7 23:44:50 51° WSW 23:45:30 61° WNW 23:49:21 10° N
Unknown 3.6 23:44:38 49° SW 23:45:38 72° SSE 23:49:45 10° E
Unknown 3.1 23:46:02 62° W 23:46:34 80° S 23:50:07 10° ESE
PEGASUS R/B 3.8 23:43:54 10° NNE 23:46:49 53° NNW 23:46:49 53° NNW
Unknown 3.6 23:46:13 47° SW 23:47:17 73° SSE 23:51:26 10° E
Unknown 3.3 23:46:39 52° W 23:47:32 86° S 23:51:22 10° E
Timation 2 Rocket 4.2 23:42:52 10° NW 23:48:30 41° WSW 23:54:02 10° S
Cosmos 773 Rocket 4.3 23:44:50 19° S 23:48:32 66° ESE 23:53:39 10° NNE
Unknown 3.6 23:47:46 46° WSW 23:48:54 73° SSE 23:53:03 10° E
Unknown 3.2 23:50:26 49° S 23:50:26 49° S 23:53:21 10° SE
Unknown 3.0 23:49:59 59° WSW 23:50:31 76° S 23:53:58 10° ESE
Unknown 3.6 23:49:36 44° WSW 23:50:49 74° SSE 23:54:58 10° E
Cosmos 2195 Rocket 4.4 23:47:27 20° SSW 23:51:53 70° WNW 23:58:08 10° N
Unknown 3.6 23:50:50 43° WSW 23:52:05 73° SSE 23:56:14 10° E
Cosmos 783 Rocket 4.4 23:49:38 30° SW 23:52:14 74° WNW 23:57:30 10° NNE
Unknown 3.5 23:51:30 43° WSW 23:52:45 76° SSE 23:56:51 10° E
Cosmos 1908 Rocket 3.4 23:50:46 10° NNW 23:55:08 88° W 23:59:29 10° S
Unknown 3.6 23:54:02 40° WSW 23:55:25 75° SSE 23:59:34 10° E
